Stations météo

Publicité
Bournemouth Airport, Grande-Bretagne (3862): Température de l'air & dewpoint: 21.05.2019 04:00:00 - 27.05.2019 04:00:00 (BST)Bournemouth Airport, Grande-Bretagne (3862): Température de l'air -20cm & Température de l'air -100cm: 21.05.2019 04:00:00 - 27.05.2019 04:00:00 (BST)Bournemouth Airport, Grande-Bretagne (3862): Vitesse du vent: 21.05.2019 04:00:00 - 27.05.2019 04:00:00 (BST)Bournemouth Airport, Grande-Bretagne (3862): Direction du vent: 21.05.2019 04:00:00 - 27.05.2019 04:00:00 (BST)Bournemouth Airport, Grande-Bretagne (3862): reduced air pressure: 21.05.2019 04:00:00 - 27.05.2019 04:00:00 (BST)Bournemouth Airport, Grande-Bretagne (3862): visibility: 21.05.2019 04:00:00 - 27.05.2019 04:00:00 (BST)Bournemouth Airport, Grande-Bretagne (3862): Ensoleillement: 21.05.2019 04:00:00 - 27.05.2019 04:00:00 (BST)Bournemouth Airport, Grande-Bretagne (3862): Quantités de précipitations: 21.05.2019 04:00:00 - 27.05.2019 04:00:00 (BST)
Date & Time tt [°C] td [°C] tt -20cm [°C] tt -100cm [°C] ff [km/h] ff [knt] dd ppp [hPa] vv [km] sd [min] rr [mm]
27.05.2019 04:00:00 - - - - - - - - - - -
27.05.2019 03:00:00 - - - - - - - - - - -
27.05.2019 02:00:00 - - - - - - - - - - -
27.05.2019 01:00:00 - - - - - - - - - - -
27.05.2019 00:00:00 - - - - - - - - - - -
26.05.2019 23:00:00 13,0 10,0 - - 16 9 NW - 10 - -
26.05.2019 22:00:00 15,0 11,0 - - 13 7 WNW - 10 - -
26.05.2019 21:00:00 16,0 11,0 - - 22 12 NW - 10 - -
26.05.2019 20:00:00 17,0 14,0 - - 16 9 W - 10 - -
26.05.2019 19:00:00 17,0 15,0 - - 13 7 W - 10 - -
26.05.2019 18:00:00 18,0 14,0 - - 24 13 W - 10 - -
26.05.2019 17:00:00 18,0 14,0 - - 16 9 SW - 10 - -
26.05.2019 16:00:00 19,0 14,0 - - 24 13 WSW - 10 - -
26.05.2019 15:00:00 19,0 14,0 - - 18 10 WSW - 10 - -
26.05.2019 14:00:00 18,0 14,0 - - 16 9 WSW - 10 - -
26.05.2019 13:00:00 18,0 13,0 - - 18 10 WSW - 10 - -
26.05.2019 12:00:00 19,0 13,0 - - 21 11 W - 10 - -
26.05.2019 11:00:00 17,0 12,0 - - 16 9 WSW - 10 - -
26.05.2019 10:00:00 16,0 12,0 - - 16 9 W - 10 - -
26.05.2019 09:00:00 16,0 12,0 - - 16 9 WSW - 10 - -
26.05.2019 08:00:00 15,0 13,0 - - 16 9 W - 10 - -
26.05.2019 07:00:00 13,0 12,0 - - 11 6 W - 10 - -
26.05.2019 06:00:00 12,0 11,0 - - 11 6 W - 10 - -
26.05.2019 05:00:00 - - - - - - - - - - -
26.05.2019 04:00:00 - - - - - - - - - - -
26.05.2019 03:00:00 - - - - - - - - - - -
26.05.2019 02:00:00 - - - - - - - - - - -
26.05.2019 01:00:00 - - - - - - - - - - -
26.05.2019 00:00:00 14,0 11,0 - - 13 7 WNW - 10 - -
25.05.2019 23:00:00 14,0 10,0 - - 11 6 WNW - 10 - -
25.05.2019 22:00:00 15,0 11,0 - - 11 6 NNW - 10 - -
25.05.2019 21:00:00 17,0 12,0 - - 15 8 W - 10 - -
25.05.2019 20:00:00 18,0 12,0 - - 21 11 W - 10 - -
25.05.2019 19:00:00 20,0 12,0 - - 24 13 W - 10 - -
25.05.2019 18:00:00 20,0 13,0 - - 22 12 W - 10 - -
25.05.2019 17:00:00 20,0 12,0 - - 16 9 WSW - 10 - -
25.05.2019 16:00:00 19,0 12,0 - - 15 8 SW - 10 - -
25.05.2019 15:00:00 20,0 12,0 - - 21 11 WSW - 10 - -
25.05.2019 14:00:00 19,0 12,0 - - 16 9 S - 10 - -
25.05.2019 13:00:00 20,0 11,0 - - 15 8 SSW - 10 - -
25.05.2019 12:00:00 19,0 10,0 - - 9 5 NW - 10 - -
25.05.2019 11:00:00 19,0 11,0 - - 13 7 W - 10 - -
25.05.2019 10:00:00 18,0 11,0 - - 8 4 - - 10 - -
25.05.2019 09:00:00 16,0 12,0 - - 8 4 NW - 10 - -
25.05.2019 08:00:00 15,0 12,0 - - 9 5 NW - 10 - -
25.05.2019 07:00:00 13,0 12,0 - - 8 4 WNW - 8 - -
25.05.2019 06:00:00 12,0 11,0 - - 8 4 NW - 8 - -
25.05.2019 05:00:00 - - - - - - - - - - -
25.05.2019 04:00:00 - - - - - - - - - - -
25.05.2019 03:00:00 - - - - - - - - - - -
25.05.2019 02:00:00 - - - - - - - - - - -
25.05.2019 01:00:00 - - - - - - - - - - -
25.05.2019 00:00:00 - - - - - - - - - - -
24.05.2019 23:00:00 14,4 10,8 - - 15 8 NW 1019,2 14 0 0,0
24.05.2019 22:00:00 15,1 11,4 - - 16 9 NW 1019,0 10 0 0,0
24.05.2019 21:00:00 16,6 11,8 - - 13 7 WNW 1018,6 10 6 0,0
24.05.2019 20:00:00 18,1 11,6 - - 18 10 WNW 1018,0 16 6 0,0
24.05.2019 19:00:00 19,8 11,7 - - 21 11 NW 1017,7 10 42 0,0
24.05.2019 18:00:00 19,5 10,2 - - 18 10 NNW 1017,8 10 12 0,0
24.05.2019 17:00:00 19,9 9,2 - - 15 8 NW 1017,9 10 6 0,0
24.05.2019 16:00:00 20,7 10,0 - - 16 9 NW 1018,0 10 0 0,0
24.05.2019 15:00:00 19,8 7,8 - - 11 6 NNW 1018,1 10 6 0,0
24.05.2019 14:00:00 19,1 8,5 - - 16 9 W 1018,2 10 24 0,0
24.05.2019 13:00:00 19,6 8,4 - - 11 6 NW 1018,4 10 24 0,0
24.05.2019 12:00:00 19,1 7,8 - - 13 7 NW 1018,4 15 60 0,0
24.05.2019 11:00:00 18,1 8,5 - - 15 8 NNW 1018,7 10 12 0,0
24.05.2019 10:00:00 16,5 9,7 15,2 12,7 15 8 NNW 1018,7 10 0 0,0
24.05.2019 09:00:00 15,2 9,7 - - 15 8 NNW 1018,4 10 0 0,0
24.05.2019 08:00:00 14,1 9,3 - - 13 7 - 1018,0 10 0 0,0
24.05.2019 07:00:00 12,6 9,3 - - 8 4 NNW 1017,7 12 0 0,0
24.05.2019 06:00:00 12,3 9,3 - - 13 7 NW 1017,6 12 0 0,0
24.05.2019 05:00:00 12,3 9,4 - - 13 7 NNW 1017,2 12 0 0,0
24.05.2019 04:00:00 12,3 9,5 - - 11 6 NW 1016,9 11 0 0,0
24.05.2019 03:00:00 12,3 9,5 - - 9 5 NW 1016,9 10 0 0,0
24.05.2019 02:00:00 12,5 9,1 - - 11 6 NW 1016,9 11 0 0,0
24.05.2019 01:00:00 12,2 8,6 - - 13 7 NW 1016,8 11 - 0,0
24.05.2019 00:00:00 11,6 7,8 - - 11 6 NW 1016,7 11 0 0,0
23.05.2019 23:00:00 12,7 7,5 - - 11 6 NW 1016,8 11 0 0,0
23.05.2019 22:00:00 13,5 7,9 - - 15 8 NW 1016,7 15 0 0,0
23.05.2019 21:00:00 14,5 7,3 - - 13 7 NW 1016,4 16 12 0,0
23.05.2019 20:00:00 17,0 10,5 - - 13 7 W 1015,6 14 60 0,0
23.05.2019 19:00:00 18,4 7,7 - - 13 7 W 1015,5 17 36 0,0
23.05.2019 18:00:00 16,8 8,6 - - 15 8 WSW 1015,6 10 42 0,0
23.05.2019 17:00:00 18,4 6,9 - - 18 10 WSW 1015,6 10 24 0,0
23.05.2019 16:00:00 20,1 4,7 - - 18 10 SW 1015,7 15 60 0,0
23.05.2019 15:00:00 20,1 3,0 - - 18 10 WSW 1015,9 10 60 0,0
23.05.2019 14:00:00 19,7 10,0 - - 15 8 S 1016,0 10 60 0,0
23.05.2019 13:00:00 18,1 9,2 - - 15 8 S 1016,3 10 60 0,0
23.05.2019 12:00:00 17,6 10,9 - - 13 7 S 1016,6 10 60 0,0
23.05.2019 11:00:00 18,5 9,6 - - 11 6 S 1016,7 10 60 0,0
23.05.2019 10:00:00 18,1 8,8 14,7 12,5 9 5 ESE 1016,9 10 60 0,0
23.05.2019 09:00:00 14,9 9,4 - - 5 3 NE 1017,2 17 60 0,0
23.05.2019 08:00:00 10,6 8,7 - - 0 0 N 1017,6 12 48 0,0
23.05.2019 07:00:00 7,7 7,1 - - 4 2 N 1017,4 9 12 0,0
23.05.2019 06:00:00 5,7 4,8 - - 5 3 NNW 1017,3 9 0 0,0
23.05.2019 05:00:00 6,6 5,8 - - 4 2 N 1017,8 4,7 0 0,0
23.05.2019 04:00:00 5,5 4,3 - - 4 2 N 1017,9 10 0 0,0
23.05.2019 03:00:00 6,5 5,6 - - 4 2 NE 1018,2 10 0 0,0
23.05.2019 02:00:00 6,4 4,9 - - 2 1 E 1018,6 16 0 0,0
23.05.2019 01:00:00 7,7 5,3 - - 2 1 E 1019,0 19 - 0,0
23.05.2019 00:00:00 9,3 4,7 - - 5 3 SW 1019,1 20 0 0,0
22.05.2019 23:00:00 12,1 4,9 - - 5 3 S 1019,2 10 0 0,0
22.05.2019 22:00:00 12,4 5,5 - - 9 5 SSW 1019,3 10 0 0,0
22.05.2019 21:00:00 13,6 4,6 - - 8 4 WSW 1019,0 10 24 0,0
22.05.2019 20:00:00 15,7 4,4 - - 13 7 SW 1018,8 10 60 0,0
22.05.2019 19:00:00 17,1 4,2 - - 11 6 SW 1019,0 28 60 0,0
22.05.2019 18:00:00 18,3 4,8 - - 13 7 SW 1019,0 35 60 0,0
22.05.2019 17:00:00 18,7 2,3 - - 16 9 SW 1019,4 30 60 0,0
22.05.2019 16:00:00 19,2 8,4 - - 16 9 SSW 1019,8 10 60 0,0
22.05.2019 15:00:00 19,2 9,0 - - 15 8 SSW 1020,0 10 60 0,0
22.05.2019 14:00:00 18,3 9,0 - - 16 9 S 1020,2 10 60 0,0
22.05.2019 13:00:00 17,6 9,5 - - 13 7 SSE 1020,4 10 42 0,0
22.05.2019 12:00:00 17,3 8,8 - - 13 7 S 1020,5 10 60 0,0
22.05.2019 11:00:00 17,2 6,3 - - 13 7 S 1020,7 23 60 0,0
22.05.2019 10:00:00 17,1 5,5 14,5 12,4 8 4 - 1020,6 10 60 0,0
22.05.2019 09:00:00 15,4 6,5 - - 5 3 - 1020,6 10 60 0,0
22.05.2019 08:00:00 12,5 8,5 - - 5 3 NE 1020,4 20 60 0,0
22.05.2019 07:00:00 7,9 7,1 - - 4 2 N 1020,5 14 18 0,0
22.05.2019 06:00:00 6,5 5,4 - - 4 2 N 1020,2 15 0 0,0
22.05.2019 05:00:00 7,5 6,8 - - 5 3 N 1020,3 14 0 0,0
22.05.2019 04:00:00 7,6 6,7 - - 4 2 NNW 1020,4 14 0 0,0
22.05.2019 03:00:00 8,9 7,6 - - 2 1 NW 1020,4 12 0 0,0
22.05.2019 02:00:00 8,7 7,3 - - 4 2 WNW 1020,3 18 0 0,0
22.05.2019 01:00:00 9,9 7,3 - - 2 1 WNW 1020,3 19 - 0,0
22.05.2019 00:00:00 10,9 7,1 - - 5 3 W 1020,3 20 0 0,0
21.05.2019 23:00:00 10,3 6,8 - - 9 5 W 1020,4 18 0 0,0
21.05.2019 22:00:00 12,7 7,1 - - 11 6 WNW 1020,2 23 0 0,0
21.05.2019 21:00:00 15,4 7,1 - - 13 7 NW 1019,6 23 42 0,0
21.05.2019 20:00:00 18,0 6,5 - - 16 9 NW 1019,2 10 30 0,0
21.05.2019 19:00:00 18,5 5,2 - - 15 8 N 1019,1 10 48 0,0
21.05.2019 18:00:00 18,4 4,9 - - 13 7 NW 1018,9 10 42 0,0
21.05.2019 17:00:00 20,0 4,8 - - 13 7 WNW 1019,0 10 42 0,0
21.05.2019 16:00:00 20,8 7,7 - - 5 3 N 1019,0 22 54 0,0
21.05.2019 15:00:00 19,7 5,5 - - 8 4 N 1019,2 22 60 0,0
21.05.2019 14:00:00 18,9 5,1 - - 15 8 NNW 1019,2 10 60 0,0
21.05.2019 13:00:00 18,1 6,2 - - 13 7 NW 1019,3 17 54 0,0
21.05.2019 12:00:00 17,9 6,5 - - 11 6 N 1019,2 10 60 0,0
21.05.2019 11:00:00 17,5 8,3 - - 15 8 N 1019,1 20 60 0,0
21.05.2019 10:00:00 15,8 7,8 13,9 12,2 13 7 NNE 1019,1 10 60 0,0
21.05.2019 09:00:00 14,8 8,3 - - 15 8 N 1018,9 10 60 0,0
21.05.2019 08:00:00 12,2 8,0 - - 9 5 - 1018,6 10 60 0,0
21.05.2019 07:00:00 8,3 8,1 - - 4 2 NNW 1018,2 18 54 0,0
21.05.2019 06:00:00 6,0 5,5 - - 4 2 NW 1017,8 5 6 0,0
21.05.2019 05:00:00 5,8 5,3 - - 2 1 NW 1017,5 10 0 0,0
21.05.2019 04:00:00 6,1 5,6 - - 5 3 N 1017,2 13 0 0,0

tt = Température de l'air
td = dewpoint
tt -20cm = Température de l'air -20cm
tt -100cm = Température de l'air -100cm
ff = Vitesse du vent
dd = Direction du vent
ppp = reduced air pressure
vv = visibility
sd = Ensoleillement
rr = Quantités de précipitations

stations d'obs. à proximité